NI4CE-10 Weather Reports


time (UTC)temp
F
wind
direction
speed
knots
gust
knots
rain 1hr
in
rain 24hr
in
rain mn
in
humidity
%
barometer
mb
20260510091019 71 151 0.0 0.0 0.00 0.00 0.00 100 1016.7
20260510090603 70 151 0.0 0.0 0.00 0.00 0.00 100 1016.7
20260510090519 70 151 0.0 0.0 0.00 0.00 0.00 100 1016.7
20260510090019 71 151 0.0 0.0 0.00 0.00 0.00 100 1016.6
20260510085519 71 151 0.0 0.9 0.00 0.00 0.00 100 1016.6
20260510085331 71 78 0.0 0.9 0.00 0.00 0.00 100 1016.5
20260510085019 71 78 0.0 0.9 0.00 0.00 0.00 100 1016.5
20260510084633 71 163 0.9 0.9 0.00 0.00 0.00 100 1016.5
20260510084519 71 163 0.9 0.9 0.00 0.00 0.00 100 1016.5
20260510084019 71 50 0.0 0.9 0.00 0.00 0.00 100 1016.5
20260510083731 71 80 0.0 0.9 0.00 0.00 0.00 100 1016.5
20260510083519 71 80 0.0 0.9 0.00 0.00 0.00 100 1016.5
20260510083019 71 78 0.0 0.0 0.00 0.00 0.00 100 1016.6
20260510082712 71 78 0.0 0.0 0.00 0.00 0.00 100 1016.7
20260510082519 71 78 0.0 0.0 0.00 0.00 0.00 100 1016.6
20260510082201 71 78 0.0 0.0 0.00 0.00 0.00 100 1016.6
20260510082019 71 78 0.0 0.0 0.00 0.00 0.00 100 1016.6
20260510081519 71 78 0.0 0.0 0.00 0.00 0.00 100 1016.7
20260510081154 72 78 0.0 0.0 0.00 0.00 0.00 100 1016.7
20260510081019 72 78 0.0 0.0 0.00 0.00 0.00 100 1016.7
20260510080519 72 78 0.0 0.9 0.00 0.00 0.00 100 1016.6
20260510080057 72 70 0.0 1.7 0.00 0.00 0.00 100 1016.6
20260510080019 72 70 0.0 1.7 0.00 0.00 0.00 100 1016.6
20260510075823 72 104 0.9 1.7 0.00 0.00 0.00 100 1016.7
20260510075519 72 104 0.9 1.7 0.00 0.00 0.00 100 1016.7
20260510075309 72 99 0.9 1.7 0.00 0.00 0.00 100 1016.7
20260510075019 72 99 0.9 1.7 0.00 0.00 0.00 100 1016.7
20260510074519 72 108 0.9 0.9 0.00 0.00 0.00 100 1016.7
20260510074122 73 97 0.9 0.9 0.00 0.00 0.00 100 1016.8
20260510074019 73 97 0.9 0.9 0.00 0.00 0.00 100 1016.8
20260510073519 73 67 0.0 0.9 0.00 0.00 0.00 100 1016.8
20260510073019 73 67 0.9 3.5 0.00 0.00 0.00 100 1016.9
20260510072519 73 104 0.0 0.0 0.00 0.00 0.00 100 1016.8
20260510072019 73 227 0.0 0.0 0.00 0.00 0.00 100 1016.8
20260510071758 73 227 0.0 0.0 0.00 0.00 0.00 100 1016.9
20260510071519 73 227 0.0 0.0 0.00 0.00 0.00 100 1016.9
20260510071406 73 227 0.0 0.0 0.00 0.00 0.00 100 1016.8
20260510071019 73 227 0.0 0.0 0.00 0.00 0.00 100 1016.8
20260510070619 73 227 0.0 0.0 0.00 0.00 0.00 100 1016.8
20260510070519 73 227 0.0 0.0 0.00 0.00 0.00 100 1016.8
20260510070128 73 227 0.0 0.0 0.00 0.00 0.00 100 1016.8
20260510070019 73 227 0.0 0.0 0.00 0.00 0.00 100 1016.8
20260510065735 73 227 0.0 0.0 0.00 0.00 0.00 100 1016.9
20260510065519 73 227 0.0 0.0 0.00 0.00 0.00 100 1016.9
20260510065409 73 227 0.0 0.0 0.00 0.00 0.00 100 1017.0
20260510065019 73 227 0.0 0.0 0.00 0.00 0.00 100 1017.0
20260510064802 74 227 0.0 0.0 0.00 0.00 0.00 100 1016.9
20260510064520 74 227 0.0 0.0 0.00 0.00 0.00 100 1016.9
20260510064243 74 227 0.0 0.0 0.00 0.00 0.00 100 1017.0
20260510064019 74 227 0.0 0.0 0.00 0.00 0.00 100 1017.0
20260510063519 74 227 0.0 0.0 0.00 0.00 0.00 100 1017.0
20260510063225 73 217 0.0 0.9 0.00 0.00 0.00 100 1017.1
20260510063155 73 227 0.0 0.0 0.00 0.00 0.00 100 1017.0
20260510063020 73 227 0.0 0.0 0.00 0.00 0.00 100 1017.0
20260510062520 73 217 0.0 0.9 0.00 0.00 0.00 100 1017.1
20260510062321 74 194 0.0 0.0 0.00 0.00 0.00 100 1017.1
20260510062020 74 194 0.0 0.0 0.00 0.00 0.00 100 1017.1
20260510061633 74 194 0.0 0.0 0.00 0.00 0.00 100 1017.1
20260510061520 74 194 0.0 0.0 0.00 0.00 0.00 100 1017.1
20260510061515 73 194 0.0 0.0 0.00 0.00 0.00 100 1017.2
20260510061235 73 194 0.0 0.0 0.00 0.00 0.00 100 1017.2
20260510061020 73 194 0.0 0.0 0.00 0.00 0.00 100 1017.2
20260510060840 73 194 0.0 0.0 0.00 0.00 0.00 100 1017.2
20260510060520 73 194 0.0 0.0 0.00 0.00 0.00 100 1017.2
20260510060129 73 194 0.0 0.0 0.00 0.00 0.00 100 1017.3
20260510060020 73 194 0.0 0.0 0.00 0.00 0.00 100 1017.3
20260510055848 74 194 0.0 0.0 0.00 0.00 0.00 100 1017.3
20260510055659 74 194 0.0 0.0 0.00 0.00 0.00 100 1017.3
20260510055520 74 194 0.0 0.0 0.00 0.00 0.00 100 1017.3
20260510055133 74 194 0.0 0.0 0.00 0.00 0.00 100 1017.4
20260510055020 74 194 0.0 0.0 0.00 0.00 0.00 100 1017.4
20260510054755 73 194 0.0 0.0 0.00 0.00 0.00 100 1017.4
20260510054520 73 194 0.0 0.0 0.00 0.00 0.00 100 1017.4
20260510054020 73 194 0.0 0.0 0.00 0.00 0.00 100 1017.4
20260510053520 73 194 0.0 0.0 0.00 0.00 0.00 100 1017.5
20260510053410 74 194 0.0 0.0 0.00 0.00 0.00 100 1017.6
20260510053324 74 194 0.0 0.0 0.00 0.00 0.00 100 1017.6
20260510053020 74 194 0.0 0.0 0.00 0.00 0.00 100 1017.6
20260510052653 74 303 0.0 0.0 0.00 0.00 0.00 100 1017.7
20260510052520 74 303 0.0 0.0 0.00 0.00 0.00 100 1017.7
20260510052020 74 303 0.0 0.0 0.00 0.00 0.00 100 1017.7
20260510051520 74 303 0.0 0.0 0.00 0.00 0.00 100 1017.8
20260510051020 74 303 0.0 0.0 0.00 0.00 0.00 100 1017.9
20260510050615 73 303 0.0 0.0 0.00 0.00 0.00 100 1018.0
20260510050520 73 303 0.0 0.0 0.00 0.00 0.00 100 1017.9
20260510050231 73 303 0.0 0.0 0.00 0.00 0.00 100 1017.9
20260510050020 73 303 0.0 0.0 0.00 0.00 0.00 100 1017.9
20260510045617 73 303 0.0 0.0 0.00 0.00 0.00 100 1018.1
20260510045520 73 303 0.0 0.0 0.00 0.00 0.00 100 1018.0
20260510045020 73 303 0.0 0.0 0.00 0.00 0.00 100 1018.0
20260510044813 73 303 0.0 0.0 0.00 0.00 0.00 100 1018.1
20260510044520 73 303 0.0 0.0 0.00 0.00 0.00 100 1018.1
20260510044115 73 303 0.0 0.0 0.00 0.00 0.00 100 1018.2
20260510044020 73 303 0.0 0.0 0.00 0.00 0.00 100 1018.1
20260510043520 73 303 0.0 0.0 0.00 0.00 0.00 100 1018.2
20260510043457 73 303 0.0 0.0 0.00 0.00 0.00 100 1018.3
20260510043020 73 303 0.0 0.0 0.00 0.00 0.00 100 1018.3
20260510042520 72 303 0.0 0.0 0.00 0.00 0.00 100 1018.2
20260510042020 72 303 0.0 0.0 0.00 0.00 0.00 100 1018.2
20260510041520 72 303 0.0 0.0 0.00 0.00 0.00 100 1018.2
20260510041151 72 303 0.0 0.0 0.00 0.00 0.00 100 1018.2
20260510041020 72 303 0.0 0.0 0.00 0.00 0.00 100 1018.2
20260510040930 72 303 0.0 0.0 0.00 0.00 0.00 100 1018.2
20260510040520 72 303 0.0 0.0 0.00 0.00 0.00 100 1018.2
20260510040020 72 303 0.0 0.0 0.00 0.00 0.00 100 1018.2
20260510035520 72 303 0.0 0.0 0.00 0.00 0.00 100 1018.1
20260510035223 73 303 0.0 0.0 0.00 0.00 0.00 100 1018.0
20260510035020 73 303 0.0 0.0 0.00 0.00 0.00 100 1018.0
20260510034615 73 303 0.0 0.0 0.00 0.00 0.00 100 1018.0
20260510034520 73 303 0.0 0.0 0.00 0.00 0.00 100 1018.0
20260510034115 73 303 0.0 0.0 0.00 0.00 0.00 100 1018.0
20260510034020 73 303 0.0 0.0 0.00 0.00 0.00 100 1018.0
20260510033520 73 303 0.0 0.0 0.00 0.00 0.00 100 1018.0
20260510033343 73 303 0.0 0.0 0.00 0.00 0.00 100 1018.0
20260510033020 73 303 0.0 0.0 0.00 0.00 0.00 100 1017.9
20260510032520 73 303 0.0 0.0 0.00 0.00 0.00 100 1018.0
20260510032518 73 303 0.0 0.0 0.00 0.00 0.00 100 1017.9
20260510032020 73 303 0.0 0.0 0.00 0.00 0.00 100 1017.9
20260510031759 73 303 0.0 0.0 0.00 0.00 0.00 100 1017.9
20260510031557 73 303 0.0 0.0 0.00 0.00 0.00 100 1017.8
20260510031520 73 303 0.0 0.0 0.00 0.00 0.00 100 1017.9
20260510031458 73 303 0.0 0.0 0.00 0.00 0.00 100 1017.8
20260510031020 73 303 0.0 0.0 0.00 0.00 0.00 100 1017.8
20260510030520 73 303 0.0 0.0 0.00 0.00 0.00 100 1017.9
20260510030057 74 303 0.0 0.0 0.00 0.00 0.00 100 1017.7
20260510030020 74 303 0.0 0.0 0.00 0.00 0.00 100 1017.7
20260510025520 74 303 0.0 0.0 0.00 0.00 0.00 100 1017.7
20260510025020 74 303 0.0 0.0 0.00 0.00 0.00 100 1017.7
20260510024520 74 303 0.0 0.0 0.00 0.00 0.00 100 1017.7
20260510024020 74 303 0.0 0.0 0.00 0.00 0.00 100 1017.7
20260510024002 74 303 0.0 0.0 0.00 0.00 0.00 100 1017.6
20260510023709 74 303 0.0 0.0 0.00 0.00 0.00 100 1017.5
20260510023521 74 303 0.0 0.0 0.00 0.00 0.00 100 1017.6
20260510023021 74 303 0.0 0.0 0.00 0.00 0.00 100 1017.5
20260510022959 74 303 0.0 0.0 0.00 0.00 0.00 100 1017.5
20260510022521 74 303 0.0 0.0 0.00 0.00 0.00 100 1017.5
20260510022021 74 303 0.0 0.0 0.00 0.00 0.00 100 1017.4
20260510022012 74 303 0.0 0.0 0.00 0.00 0.00 100 1017.3
20260510021521 74 303 0.0 0.0 0.00 0.00 0.00 100 1017.3
20260510021021 74 303 0.0 0.0 0.00 0.00 0.00 100 1017.3
20260510020749 75 303 0.0 0.0 0.00 0.00 0.00 100 1017.2
20260510020521 75 303 0.0 0.0 0.00 0.00 0.00 100 1017.2
20260510020021 75 303 0.0 0.0 0.00 0.00 0.00 100 1017.2
20260510015521 75 303 0.0 0.0 0.00 0.00 0.00 100 1017.1
20260510015021 75 303 0.0 0.0 0.00 0.00 0.00 100 1017.0
20260510014616 75 303 0.0 0.0 0.00 0.00 0.00 100 1016.9
20260510014521 75 303 0.0 0.0 0.00 0.00 0.00 100 1016.9
20260510014052 76 303 0.0 0.0 0.00 0.00 0.00 100 1016.9
20260510014021 75 303 0.0 0.0 0.00 0.00 0.00 100 1016.9
20260510013616 76 303 0.0 0.0 0.00 0.00 0.00 100 1016.8
20260510013521 76 303 0.0 0.0 0.00 0.00 0.00 100 1016.9
20260510013021 76 303 0.0 0.0 0.00 0.00 0.00 100 1016.8
20260510012603 77 303 0.0 0.0 0.00 0.00 0.00 100 1016.8
20260510012521 76 303 0.0 0.0 0.00 0.00 0.00 100 1016.8
20260510012021 77 303 0.0 0.0 0.00 0.00 0.00 100 1016.8
20260510011831 77 303 0.0 0.0 0.00 0.00 0.00 100 1016.8
20260510011521 77 303 0.0 0.0 0.00 0.00 0.00 100 1016.8
20260510011319 78 303 0.0 0.0 0.00 0.00 0.00 100 1016.7
20260510011147 77 303 0.0 0.0 0.00 0.00 0.00 100 1016.7
20260510011021 77 303 0.0 0.0 0.00 0.00 0.00 100 1016.7
20260510010521 78 303 0.0 0.0 0.00 0.00 0.00 100 1016.7
20260510010153 80 303 0.0 0.0 0.00 0.00 0.00 100 1016.4
20260510010021 78 303 0.0 0.0 0.00 0.00 0.00 100 1016.6
20260510005619 80 303 0.0 0.9 0.00 0.00 0.00 100 1016.3
20260510005521 79 303 0.0 0.0 0.00 0.00 0.00 100 1016.5
20260510005500 80 315 0.0 3.5 0.00 0.00 0.00 100 1016.1
20260510005325 80 315 0.0 3.5 0.00 0.00 0.00 100 1016.1
20260510005021 80 303 0.0 0.0 0.00 0.00 0.00 100 1016.4
20260510004813 80 272 0.0 3.5 0.00 0.00 0.00 100 1016.0
20260510004521 80 303 0.0 0.9 0.00 0.00 0.00 100 1016.3
20260510004103 80 272 0.0 3.5 0.00 0.00 0.00 100 1016.0
20260510004021 80 315 0.0 3.5 0.00 0.00 0.00 100 1016.1
20260510003521 80 272 0.0 3.5 0.00 0.00 0.00 100 1016.0
20260510003445 81 246 2.6 3.5 0.00 0.00 0.00 100 1015.9
20260510003021 81 257 2.6 4.3 0.00 0.00 0.00 100 1015.9
20260510002521 81 246 2.6 3.5 0.00 0.00 0.00 100 1015.9
20260510002021 81 226 1.7 5.2 0.00 0.00 0.00 100 1015.8
20260510001521 82 254 2.6 4.3 0.00 0.00 0.00 100 1015.9
20260510001021 82 275 1.7 4.3 0.00 0.00 0.00 100 1015.9
20260510000521 82 277 1.7 3.5 0.00 0.00 0.00 100 1015.8
20260510000021 82 279 0.9 4.3 0.00 0.00 0.00 100 1015.8
20260509235932 83 271 1.7 3.5 0.00 0.00 0.00 100 1015.8
20260509235521 83 271 1.7 3.5 0.00 0.00 0.00 100 1015.8
20260509235021 83 268 1.7 4.3 0.00 0.00 0.00 100 1015.7
20260509234746 83 278 3.5 4.3 0.00 0.00 0.00 100 1015.6
20260509234521 83 277 1.7 5.2 0.00 0.00 0.00 100 1015.7
20260509234414 83 226 2.6 5.2 0.00 0.00 0.00 100 1015.5
20260509234021 83 278 3.5 4.3 0.00 0.00 0.00 100 1015.6
20260509233706 83 226 2.6 5.2 0.00 0.00 0.00 100 1015.5
20260509233521 83 226 2.6 5.2 0.00 0.00 0.00 100 1015.5
20260509233128 84 253 0.9 7.0 0.00 0.00 0.00 100 1015.5
20260509233021 84 253 0.9 7.0 0.00 0.00 0.00 100 1015.5
20260509232521 84 272 4.3 9.6 0.00 0.00 0.00 100 1015.5
20260509232021 84 237 0.9 7.0 0.00 0.00 0.00 100 1015.5
20260509231522 85 268 4.3 8.7 0.00 0.00 0.00 100 1015.4
20260509231514 85 279 2.6 8.7 0.00 0.00 0.00 100 1015.3
20260509231021 85 279 2.6 8.7 0.00 0.00 0.00 100 1015.3
20260509230521 85 240 5.2 7.0 0.00 0.00 0.00 100 1015.2
20260509230420 86 271 7.0 9.6 0.00 0.00 0.00 100 1015.1
20260509230210 86 271 7.0 9.6 0.00 0.00 0.00 100 1015.1
20260509230021 86 271 7.0 9.6 0.00 0.00 0.00 100 1015.1
20260509225521 86 262 7.8 8.7 0.00 0.00 0.00 100 1015.1
20260509225430 86 289 1.7 9.6 0.00 0.00 0.00 100 1015.0
20260509225021 86 289 1.7 9.6 0.00 0.00 0.00 100 1015.0
20260509224604 87 244 8.7 11.3 0.00 0.00 0.00 100 1015.0
20260509224521 87 244 8.7 11.3 0.00 0.00 0.00 100 1015.0
20260509224408 88 248 8.7 10.4 0.00 0.00 0.00 100 1015.0
20260509224149 87 187 0.9 8.7 0.00 0.00 0.00 100 1015.0
20260509224021 87 187 0.9 8.7 0.00 0.00 0.00 100 1015.0
20260509223522 87 223 8.7 11.3 0.00 0.00 0.00 100 1014.9
20260509223022 87 236 8.7 10.4 0.00 0.00 0.00 100 1015.0
20260509222622 88 248 8.7 10.4 0.00 0.00 0.00 100 1015.0
20260509222522 88 248 8.7 10.4 0.00 0.00 0.00 100 1015.0
20260509222149 88 244 1.7 9.6 0.00 0.00 0.00 100 1014.9
20260509222022 88 244 1.7 9.6 0.00 0.00 0.00 100 1014.9
20260509221634 88 281 7.8 9.6 0.00 0.00 0.00 100 1014.9
20260509221522 88 281 7.8 9.6 0.00 0.00 0.00 100 1014.9
20260509221150 89 240 8.7 9.6 0.00 0.00 0.00 100 1014.9
20260509221022 89 240 8.7 9.6 0.00 0.00 0.00 100 1014.9
20260509220522 88 251 5.2 11.3 0.00 0.00 0.00 100 1014.9
20260509220022 88 253 4.3 11.3 0.00 0.00 0.00 100 1014.8
20260509215522 89 254 4.3 12.2 0.00 0.00 0.00 100 1014.7
20260509215022 89 212 0.0 11.3 0.00 0.00 0.00 100 1014.7
20260509214522 90 215 5.2 9.6 0.00 0.00 0.00 100 1014.6
20260509214122 90 257 7.0 10.4 0.00 0.00 0.00 100 1014.6
20260509214022 90 257 7.0 10.4 0.00 0.00 0.00 100 1014.6
20260509213740 90 234 7.0 13.0 0.00 0.00 0.00 100 1014.6
20260509213703 90 234 7.0 13.0 0.00 0.00 0.00 100 1014.6
20260509213522 90 234 7.0 13.0 0.00 0.00 0.00 100 1014.6
20260509213118 91 244 11.3 13.0 0.00 0.00 0.00 100 1014.6
20260509213050 92 225 9.6 12.2 0.00 0.00 0.00 100 1014.5
20260509213022 91 244 11.3 13.0 0.00 0.00 0.00 100 1014.6
20260509212652 91 261 8.7 14.8 0.00 0.00 0.00 100 1014.6
20260509212522 91 261 8.7 14.8 0.00 0.00 0.00 100 1014.6
20260509212022 90 233 5.2 11.3 0.00 0.00 0.00 100 1014.5
20260509211639 90 267 9.6 13.9 0.00 0.00 0.00 100 1014.5
20260509211522 90 267 9.6 13.9 0.00 0.00 0.00 100 1014.5
20260509211022 91 202 7.8 14.8 0.00 0.00 0.00 100 1014.5
20260509210522 92 225 9.6 12.2 0.00 0.00 0.00 100 1014.5
20260509210236 92 267 7.8 13.0 0.00 0.00 0.00 100 1014.6
20260509210022 91 232 4.3 9.6 0.00 0.00 0.00 100 1014.5
20260509205652 92 271 8.7 13.9 0.00 0.00 0.00 100 1014.5
20260509205522 92 271 8.7 13.9 0.00 0.00 0.00 100 1014.5
20260509205022 92 270 5.2 12.2 0.00 0.00 0.00 100 1014.6
20260509204627 93 243 9.6 14.8 0.00 0.00 0.00 100 1014.6
20260509204522 93 243 9.6 14.8 0.00 0.00 0.00 100 1014.6
20260509204121 92 267 7.8 13.0 0.00 0.00 0.00 100 1014.6
20260509204022 92 267 7.8 13.0 0.00 0.00 0.00 100 1014.6
20260509203849 91 246 10.4 14.8 0.00 0.00 0.00 100 1014.7
20260509203647 91 246 10.4 14.8 0.00 0.00 0.00 100 1014.7
20260509203522 91 246 10.4 14.8 0.00 0.00 0.00 100 1014.7
20260509203137 93 205 9.6 12.2 0.00 0.00 0.00 100 1014.7
20260509203102 93 244 3.5 14.8 0.00 0.00 0.00 100 1014.6
20260509203022 93 205 9.6 12.2 0.00 0.00 0.00 100 1014.7
20260509202630 93 244 3.5 14.8 0.00 0.00 0.00 100 1014.6
20260509202523 93 244 3.5 14.8 0.00 0.00 0.00 100 1014.6
20260509202141 93 201 7.8 13.9 0.00 0.00 0.00 100 1014.7
20260509202022 93 201 7.8 13.9 0.00 0.00 0.00 100 1014.7
20260509201639 93 253 8.7 15.6 0.00 0.00 0.00 100 1014.7
20260509201522 93 253 8.7 15.6 0.00 0.00 0.00 100 1014.7
20260509201022 92 232 11.3 13.9 0.00 0.00 0.00 100 1014.8
20260509200522 93 251 9.6 14.8 0.00 0.00 0.00 100 1014.8
20260509200116 94 261 6.1 13.9 0.00 0.00 0.00 100 1014.7
20260509200022 94 261 6.1 13.9 0.00 0.00 0.00 100 1014.7
20260509195522 94 271 7.0 13.9 0.00 0.00 0.00 100 1014.9
20260509195236 94 251 7.0 15.6 0.00 0.00 0.00 100 1014.8
20260509195022 94 251 7.0 15.6 0.00 0.00 0.00 100 1014.8
20260509194522 94 279 5.2 15.6 0.00 0.00 0.00 100 1014.9
20260509194208 92 250 11.3 13.0 0.00 0.00 0.00 100 1015.1
20260509194022 92 250 11.3 13.0 0.00 0.00 0.00 100 1015.1
20260509193522 93 237 8.7 14.8 0.00 0.00 0.00 100 1015.1
20260509193249 93 248 10.4 14.8 0.00 0.00 0.00 100 1015.1
20260509193022 93 248 10.4 14.8 0.00 0.00 0.00 100 1015.1
20260509192654 93 255 7.8 13.0 0.00 0.00 0.00 100 1015.1
20260509192613 94 201 10.4 14.8 0.00 0.00 0.00 100 1015.1
20260509192522 93 255 7.8 13.0 0.00 0.00 0.00 100 1015.1
20260509192248 94 201 10.4 14.8 0.00 0.00 0.00 100 1015.1
20260509192022 94 201 10.4 14.8 0.00 0.00 0.00 100 1015.1
20260509191646 95 236 8.7 14.8 0.00 0.00 0.00 100 1015.2
20260509191522 95 236 8.7 14.8 0.00 0.00 0.00 100 1015.2
20260509191250 95 225 4.3 12.2 0.00 0.00 0.00 100 1015.3
20260509191022 95 225 4.3 12.2 0.00 0.00 0.00 100 1015.3
20260509190522 95 230 6.1 14.8 0.00 0.00 0.00 100 1015.4
20260509190324 94 246 6.1 16.5 0.00 0.00 0.00 100 1015.5
20260509190022 93 265 3.5 16.5 0.00 0.00 0.00 100 1015.6
20260509185749 93 319 4.3 15.6 0.00 0.00 0.00 100 1015.6
20260509185522 93 319 4.3 15.6 0.00 0.00 0.00 100 1015.6
20260509185251 94 225 5.2 11.3 0.00 0.00 0.00 100 1015.6
20260509185022 94 225 5.2 11.3 0.00 0.00 0.00 100 1015.6
20260509184657 94 246 6.1 16.5 0.00 0.00 0.00 100 1015.5
20260509184522 94 246 6.1 16.5 0.00 0.00 0.00 100 1015.5
20260509184239 94 153 6.1 15.6 0.00 0.00 0.00 100 1015.6
20260509184236 94 234 12.2 13.0 0.00 0.00 0.00 100 1015.5
20260509184234 95 247 7.8 12.2 0.00 0.00 0.00 100 1015.5
20260509184022 94 234 12.2 13.0 0.00 0.00 0.00 100 1015.5
20260509183522 94 274 7.0 16.5 0.00 0.00 0.00 100 1015.5
20260509183148 94 217 3.5 13.9 0.00 0.00 0.00 100 1015.6
20260509183022 94 217 3.5 13.9 0.00 0.00 0.00 100 1015.6
20260509182754 94 153 6.1 15.6 0.00 0.00 0.00 100 1015.6
20260509182522 94 153 6.1 15.6 0.00 0.00 0.00 100 1015.6
20260509182150 95 247 7.8 12.2 0.00 0.00 0.00 100 1015.5
20260509182022 95 247 7.8 12.2 0.00 0.00 0.00 100 1015.5
20260509181935 95 258 8.7 16.5 0.00 0.00 0.00 100 1015.6
20260509181631 95 258 8.7 16.5 0.00 0.00 0.00 100 1015.6
20260509181522 95 258 8.7 16.5 0.00 0.00 0.00 100 1015.6
20260509181244 93 195 6.1 13.9 0.00 0.00 0.00 100 1015.6
20260509181022 93 195 6.1 13.9 0.00 0.00 0.00 100 1015.6
20260509180643 94 234 7.0 12.2 0.00 0.00 0.00 100 1015.6
20260509180628 95 237 10.4 15.6 0.00 0.00 0.00 100 1015.5
20260509180548 96 257 7.0 13.0 0.00 0.00 0.00 100 1015.6
20260509180522 94 234 7.0 12.2 0.00 0.00 0.00 100 1015.6
20260509180022 95 237 10.4 15.6 0.00 0.00 0.00 100 1015.5
20260509175522 96 257 7.0 13.0 0.00 0.00 0.00 100 1015.6
20260509175149 95 253 7.8 13.9 0.00 0.00 0.00 100 1015.7
20260509175144 94 199 6.1 13.0 0.00 0.00 0.00 100 1015.7
20260509175022 95 253 7.8 13.9 0.00 0.00 0.00 100 1015.7
20260509174639 94 199 6.1 13.0 0.00 0.00 0.00 100 1015.7
20260509174523 94 199 6.1 13.0 0.00 0.00 0.00 100 1015.7
20260509174154 94 244 7.0 12.2 0.00 0.00 0.00 100 1015.8
20260509174148 93 232 7.0 12.2 0.00 0.00 0.00 100 1015.8
20260509174023 93 232 7.0 12.2 0.00 0.00 0.00 100 1015.8
20260509173523 94 213 8.7 12.2 0.00 0.00 0.00 100 1015.8
20260509173023 94 262 7.0 11.3 0.00 0.00 0.00 100 1015.8
20260509172737 94 244 7.0 12.2 0.00 0.00 0.00 100 1015.8
20260509172705 94 244 7.0 12.2 0.00 0.00 0.00 100 1015.8
20260509172523 94 244 7.0 12.2 0.00 0.00 0.00 100 1015.8
20260509172235 94 243 7.8 14.8 0.00 0.00 0.00 100 1015.7
20260509172023 94 243 7.8 14.8 0.00 0.00 0.00 100 1015.7
20260509171931 93 205 2.6 7.8 0.00 0.00 0.00 100 1015.8
20260509171630 94 281 3.5 11.3 0.00 0.00 0.00 100 1015.8
20260509171523 94 281 3.5 11.3 0.00 0.00 0.00 100 1015.8
20260509171236 93 205 2.6 7.8 0.00 0.00 0.00 100 1015.8
20260509171157 93 205 2.6 7.8 0.00 0.00 0.00 100 1015.8
20260509171023 93 205 2.6 7.8 0.00 0.00 0.00 100 1015.8
20260509170732 92 226 7.0 9.6 0.00 0.00 0.00 100 1016.0
20260509170656 92 226 7.0 9.6 0.00 0.00 0.00 100 1016.0
20260509170652 94 217 7.8 10.4 0.00 0.00 0.00 100 1015.9
20260509170523 92 226 7.0 9.6 0.00 0.00 0.00 100 1016.0
20260509170023 94 217 7.8 10.4 0.00 0.00 0.00 100 1015.9
20260509165523 94 277 5.2 11.3 0.00 0.00 0.00 100 1016.0
20260509165234 93 255 8.7 13.0 0.00 0.00 0.00 100 1016.1
20260509165023 93 255 8.7 13.0 0.00 0.00 0.00 100 1016.1
20260509164523 93 241 13.0 14.8 0.00 0.00 0.00 100 1016.2
20260509164256 92 246 4.3 12.2 0.00 0.00 0.00 100 1016.3
20260509164023 92 246 4.3 12.2 0.00 0.00 0.00 100 1016.3
20260509163523 91 237 6.1 10.4 0.00 0.00 0.00 100 1016.4
20260509163244 92 237 5.2 11.3 0.00 0.00 0.00 100 1016.3
20260509163238 92 206 7.0 13.9 0.00 0.00 0.00 100 1016.4
20260509163023 92 206 7.0 13.9 0.00 0.00 0.00 100 1016.4
20260509162650 92 237 5.2 11.3 0.00 0.00 0.00 100 1016.3
20260509162523 92 237 5.2 11.3 0.00 0.00 0.00 100 1016.3
20260509162144 91 184 4.3 13.9 0.00 0.00 0.00 100 1016.4
20260509162108 91 216 3.5 10.4 0.00 0.00 0.00 100 1016.5
20260509162023 91 184 4.3 13.9 0.00 0.00 0.00 100 1016.4
20260509161523 91 216 3.5 10.4 0.00 0.00 0.00 100 1016.5
20260509161203 92 246 7.8 9.6 0.00 0.00 0.00 100 1016.7
20260509161023 92 194 1.7 7.8 0.00 0.00 0.00 100 1016.6
20260509160523 92 246 7.8 9.6 0.00 0.00 0.00 100 1016.7
20260509160319 91 267 2.6 9.6 0.00 0.00 0.00 100 1016.7
20260509160023 91 206 4.3 10.4 0.00 0.00 0.00 100 1016.8
20260509155724 91 267 2.6 9.6 0.00 0.00 0.00 100 1016.7
20260509155523 91 267 2.6 9.6 0.00 0.00 0.00 100 1016.7
20260509155023 91 237 3.5 7.8 0.00 0.00 0.00 100 1016.8
20260509154735 89 206 7.0 7.8 0.00 0.00 0.00 100 1016.8
20260509154523 89 206 7.0 7.8 0.00 0.00 0.00 100 1016.8
20260509154235 88 149 3.5 7.8 0.00 0.00 0.00 100 1016.8
20260509154023 88 149 3.5 7.8 0.00 0.00 0.00 100 1016.8
20260509153726 89 158 2.6 9.6 0.00 0.00 0.00 100 1016.8
20260509153523 89 158 2.6 9.6 0.00 0.00 0.00 100 1016.8
20260509153023 90 234 2.6 7.0 0.00 0.00 0.00 100 1016.9
20260509152756 88 206 6.1 7.8 0.00 0.00 0.00 100 1016.9
20260509152523 88 206 6.1 7.8 0.00 0.00 0.00 100 1016.9
20260509152023 89 151 1.7 7.0 0.00 0.00 0.00 100 1017.1
20260509151651 87 181 4.3 6.1 0.00 0.00 0.00 100 1017.1
20260509151523 87 181 4.3 6.1 0.00 0.00 0.00 100 1017.1
20260509151149 87 203 3.5 7.0 0.00 0.00 0.00 100 1017.1
20260509151023 87 203 3.5 7.0 0.00 0.00 0.00 100 1017.1
20260509150813 88 237 3.5 6.1 0.00 0.00 0.00 100 1017.1
20260509150733 88 237 3.5 6.1 0.00 0.00 0.00 100 1017.1
20260509150523 88 237 3.5 6.1 0.00 0.00 0.00 100 1017.1
20260509150334 86 181 3.5 7.0 0.00 0.00 0.00 100 1017.3
20260509150330 87 137 0.9 7.0 0.00 0.00 0.00 100 1017.2
20260509150228 86 181 3.5 7.0 0.00 0.00 0.00 100 1017.3
20260509150023 86 181 3.5 7.0 0.00 0.00 0.00 100 1017.3
20260509145723 87 137 0.9 7.0 0.00 0.00 0.00 100 1017.2
20260509145523 87 137 0.9 7.0 0.00 0.00 0.00 100 1017.2
20260509145023 87 227 2.6 5.2 0.00 0.00 0.00 100 1017.3
20260509144736 86 184 3.5 5.2 0.00 0.00 0.00 100 1017.2
20260509144654 86 184 3.5 5.2 0.00 0.00 0.00 100 1017.2
20260509144523 86 184 3.5 5.2 0.00 0.00 0.00 100 1017.2
20260509144023 87 196 2.6 6.1 0.00 0.00 0.00 100 1017.1
20260509143900 87 230 2.6 6.1 0.00 0.00 0.00 100 1017.1
20260509143523 86 177 3.5 6.1 0.00 0.00 0.00 100 1017.0
20260509143023 87 230 2.6 6.1 0.00 0.00 0.00 100 1017.1
20260509142523 86 178 3.5 5.2 0.00 0.00 0.00 100 1017.0
20260509142248 85 181 2.6 5.2 0.00 0.00 0.00 100 1016.9
20260509142023 85 181 2.6 5.2 0.00 0.00 0.00 100 1016.9
20260509141732 86 163 0.9 5.2 0.00 0.00 0.00 100 1016.9
20260509141523 86 163 0.9 5.2 0.00 0.00 0.00 100 1016.9
20260509141111 84 170 2.6 6.1 0.00 0.00 0.00 100 1016.8
20260509141023 85 146 5.2 7.0 0.00 0.00 0.00 100 1016.8
20260509140523 84 170 2.6 6.1 0.00 0.00 0.00 100 1016.8
20260509140212 85 133 3.5 4.3 0.00 0.00 0.00 100 1016.6
20260509140023 85 144 5.2 5.2 0.00 0.00 0.00 100 1016.7
20260509135740 85 133 3.5 4.3 0.00 0.00 0.00 100 1016.6
20260509135523 85 133 3.5 4.3 0.00 0.00 0.00 100 1016.6
20260509135441 84 59 1.7 5.2 0.00 0.00 0.00 100 1016.7
20260509135023 84 59 1.7 5.2 0.00 0.00 0.00 100 1016.7
20260509134716 84 118 4.3 5.2 0.00 0.00 0.00 100 1016.8
20260509134524 84 118 4.3 5.2 0.00 0.00 0.00 100 1016.8
20260509134024 81 171 2.6 5.2 0.00 0.00 0.00 100 1016.7
20260509133722 81 56 1.7 5.2 0.00 0.00 0.00 100 1016.6
20260509133524 81 149 2.6 5.2 0.00 0.00 0.00 100 1016.6
20260509133024 81 56 1.7 5.2 0.00 0.00 0.00 100 1016.6
20260509132524 81 165 2.6 4.3 0.00 0.00 0.00 100 1016.6
20260509132500 82 126 1.7 5.2 0.00 0.00 0.00 100 1016.6
20260509132024 82 126 1.7 5.2 0.00 0.00 0.00 100 1016.6
20260509131524 84 92 3.5 5.2 0.00 0.00 0.00 100 1016.6
20260509131024 82 81 1.7 3.5 0.00 0.00 0.00 100 1016.6
20260509130524 81 21 0.0 0.0 0.00 0.00 0.00 100 1016.5
20260509130024 80 21 0.0 0.0 0.00 0.00 0.00 100 1016.5
20260509125617 79 21 0.0 0.0 0.00 0.00 0.00 100 1016.5
20260509125605 79 21 0.0 0.0 0.00 0.00 0.00 100 1016.5
20260509125524 79 21 0.0 0.0 0.00 0.00 0.00 100 1016.5
20260509125024 79 21 0.0 0.0 0.00 0.00 0.00 100 1016.5
20260509124747 79 21 0.0 0.0 0.00 0.00 0.00 100 1016.5
20260509124524 79 21 0.0 0.0 0.00 0.00 0.00 100 1016.5
20260509124024 79 21 0.0 0.0 0.00 0.00 0.00 100 1016.5
20260509123524 80 21 0.0 0.0 0.00 0.00 0.00 100 1016.5
20260509123259 81 21 0.0 0.0 0.00 0.00 0.00 100 1016.4
20260509123024 81 21 0.0 0.0 0.00 0.00 0.00 100 1016.4
20260509122809 81 21 0.0 0.0 0.00 0.00 0.00 100 1016.4
20260509122524 81 21 0.0 0.0 0.00 0.00 0.00 100 1016.4
20260509122024 80 21 0.0 0.0 0.00 0.00 0.00 100 1016.4
20260509121524 80 21 0.0 0.0 0.00 0.00 0.00 100 1016.3
20260509121024 80 21 0.0 0.0 0.00 0.00 0.00 100 1016.2
20260509120524 79 21 0.0 0.9 0.00 0.00 0.00 100 1016.0
20260509120024 78 71 0.0 0.0 0.00 0.00 0.00 100 1015.9
20260509115524 78 71 0.0 0.0 0.00 0.00 0.00 100 1016.0
20260509115024 76 71 0.0 0.0 0.00 0.00 0.00 100 1015.8
20260509114648 70 71 0.0 0.0 0.00 0.00 0.00 100 1015.8
20260509114524 75 71 0.0 0.0 0.00 0.00 0.00 100 1015.8
20260509114041 72 71 0.0 0.0 0.00 0.00 0.00 100 1015.8
20260509114024 74 71 0.0 0.0 0.00 0.00 0.00 100 1015.8
20260509113524 72 71 0.0 0.0 0.00 0.00 0.00 100 1015.8
20260509113024 72 71 0.0 0.0 0.00 0.00 0.00 100 1015.8
20260509112524 70 71 0.0 0.0 0.00 0.00 0.00 100 1015.8
20260509112501 68 71 0.0 0.0 0.00 0.00 0.00 100 1015.6
20260509112024 69 71 0.0 0.0 0.00 0.00 0.00 100 1015.7
20260509111813 68 71 0.0 0.0 0.00 0.00 0.00 100 1015.7
20260509111524 68 71 0.0 0.0 0.00 0.00 0.00 100 1015.7
20260509111024 68 71 0.0 0.0 0.00 0.00 0.00 100 1015.6
20260509110524 68 71 0.0 0.0 0.00 0.00 0.00 100 1015.6
20260509110145 67 71 0.0 0.0 0.00 0.00 0.00 100 1015.6
20260509110024 67 71 0.0 0.0 0.00 0.00 0.00 100 1015.6
20260509105524 67 71 0.0 0.0 0.00 0.00 0.00 100 1015.5
20260509105024 67 71 0.0 0.0 0.00 0.00 0.00 100 1015.6
20260509104524 67 71 0.0 0.0 0.00 0.00 0.00 100 1015.5
20260509104458 67 71 0.0 0.0 0.00 0.00 0.00 100 1015.5
20260509104024 67 71 0.0 0.0 0.00 0.00 0.00 100 1015.5
20260509103524 67 71 0.0 0.0 0.00 0.00 0.00 100 1015.4
20260509103225 67 71 0.0 0.0 0.00 0.00 0.00 100 1015.4
20260509103024 67 71 0.0 0.0 0.00 0.00 0.00 100 1015.4
20260509102727 68 71 0.0 0.0 0.00 0.00 0.00 100 1015.6
20260509102524 68 71 0.0 0.0 0.00 0.00 0.00 100 1015.5
20260509102024 68 71 0.0 0.0 0.00 0.00 0.00 100 1015.6
20260509101524 68 71 0.0 0.0 0.00 0.00 0.00 100 1015.6
20260509101024 68 71 0.0 0.0 0.00 0.00 0.00 100 1015.5
20260509100836 68 71 0.0 0.0 0.00 0.00 0.00 100 1015.6
20260509100524 68 71 0.0 0.0 0.00 0.00 0.00 100 1015.6
20260509100024 68 71 0.0 0.0 0.00 0.00 0.00 100 1015.6
20260509100019 68 71 0.0 0.0 0.00 0.00 0.00 100 1015.5
20260509095812 67 71 0.0 0.0 0.00 0.00 0.00 100 1015.6
20260509095524 67 71 0.0 0.0 0.00 0.00 0.00 100 1015.6
20260509095025 68 71 0.0 0.0 0.00 0.00 0.00 100 1015.5
20260509094525 68 71 0.0 0.0 0.00 0.00 0.00 100 1015.5
20260509094502 68 71 0.0 0.0 0.00 0.00 0.00 100 1015.5
20260509094025 68 71 0.0 0.0 0.00 0.00 0.00 100 1015.5
20260509093525 68 71 0.0 0.0 0.00 0.00 0.00 100 1015.5
20260509093025 68 71 0.0 0.0 0.00 0.00 0.00 100 1015.5
20260509092947 68 71 0.0 0.0 0.00 0.00 0.00 100 1015.5
20260509092854 68 71 0.0 0.0 0.00 0.00 0.00 100 1015.5
20260509092525 68 71 0.0 0.0 0.00 0.00 0.00 100 1015.5
20260509092025 68 71 0.0 0.0 0.00 0.00 0.00 100 1015.6
20260509091731 68 71 0.0 0.0 0.00 0.00 0.00 100 1015.7
20260509091525 68 71 0.0 0.0 0.00 0.00 0.00 100 1015.7